Back to catalog

STARLINK-4131

AliveCommunicationsVLEO
NORAD 53246·PAYLOAD·🇺🇸 United States

Launched Jul 24, 2022 from Cape Canaveral Space Force Station

Loading…

Next Passes (next 24 hours)

TLE

FreshSource: CelesTrak SupGP

Epoch: Sep 14, 2026, 22:19 UTC

1 53246C 22086E   26257.93034722  .00027549  00000+0  88597-3 0  2573
2 53246  53.1575  62.7648 0001106  83.0759 185.0767 15.31686329    10

Track STARLINK-4131 in real time with AllMySat

Download on the App Store